DW7955 Weather Reports


time (UTC)temp
F
wind
direction
speed
knots
gust
knots
rain 1hr
in
rain 24hr
in
rain mn
in
humidity
%
barometer
mb
20260510224513 65 103 7.8 13.0 0.00 0.00 0.00 43 1016.3
20260510223004 65 64 7.8 16.5 0.00 0.00 0.00 45 1016.2
20260510221505 65 115 6.1 16.5 0.00 0.00 0.00 44 1016.3
20260510220003 65 73 7.8 13.9 0.00 0.00 0.00 44 1016.2
20260510214502 65 38 7.8 13.0 0.00 0.00 0.00 44 1016.3
20260510213002 65 63 9.6 19.1 0.00 0.00 0.00 44 1016.5
20260510211500 65 56 7.0 12.2 0.00 0.00 0.00 45 1016.7
20260510210059 64 90 7.0 13.0 0.00 0.00 0.00 44 1016.8
20260510204605 65 45 4.3 12.2 0.00 0.00 0.00 46 1016.9
20260510203058 65 124 4.3 10.4 0.00 0.00 0.00 46 1017.0
20260510201558 64 133 4.3 10.4 0.00 0.00 0.00 46 1017.0
20260510200107 64 185 3.5 7.0 0.00 0.00 0.00 47 1016.9
20260510194605 62 51 5.2 13.0 0.00 0.00 0.00 49 1017.0
20260510193102 62 134 7.0 12.2 0.00 0.00 0.00 49 1017.0
20260510191551 63 92 4.3 7.8 0.00 0.00 0.00 50 1017.1
20260510190053 61 180 3.5 8.7 0.00 0.00 0.00 52 1017.1
20260510184551 60 141 2.6 11.3 0.00 0.00 0.00 55 1017.1
20260510183044 60 168 3.5 8.7 0.00 0.00 0.00 55 1017.2
20260510181541 59 150 3.5 9.6 0.00 0.00 0.00 58 1017.4
20260510180042 59 181 3.5 12.2 0.00 0.00 0.00 57 1017.4
20260510174540 58 73 4.3 10.4 0.00 0.00 0.00 61 1017.4
20260510173035 57 108 3.5 12.2 0.00 0.00 0.00 64 1017.5
20260510171535 57 131 7.0 10.4 0.00 0.00 0.00 63 1017.4
20260510170032 57 122 2.6 13.9 0.00 0.00 0.00 66 1017.3
20260510164531 56 124 5.2 9.6 0.00 0.00 0.00 68 1017.4
20260510163031 55 78 2.6 7.0 0.00 0.00 0.00 70 1017.4
20260510161531 55 123 1.7 9.6 0.00 0.00 0.00 70 1017.4
20260510160034 55 111 1.7 8.7 0.00 0.00 0.00 68 1017.5
20260510154528 53 119 2.6 6.1 0.00 0.00 0.00 72 1017.5
20260510153022 53 81 3.5 7.8 0.00 0.00 0.00 73 1017.5
20260510151525 52 74 1.7 6.1 0.00 0.00 0.00 74 1017.4
20260510150020 52 71 3.5 7.0 0.00 0.00 0.00 75 1017.4
20260510144522 52 35 0.9 4.3 0.00 0.00 0.00 75 1017.3
20260510143019 52 46 2.6 4.3 0.00 0.00 0.00 77 1017.3
20260510141518 52 66 0.0 1.7 0.00 0.00 0.00 75 1017.4
20260510140014 52 149 0.0 0.9 0.00 0.00 0.00 75 1017.2
20260510134514 52 149 0.0 2.6 0.00 0.00 0.00 74 1017.2
20260510133012 52 50 0.0 2.6 0.00 0.00 0.00 76 1017.3
20260510131509 51 56 1.7 3.5 0.00 0.00 0.00 79 1017.1
20260510130007 50 129 0.0 1.7 0.00 0.00 0.00 82 1016.9
20260510124507 49 128 0.0 0.0 0.00 0.00 0.00 83 1016.8
20260510123006 49 128 0.0 0.0 0.00 0.00 0.00 83 1016.9
20260510121504 49 128 0.0 0.0 0.00 0.00 0.00 84 1016.7
20260510120002 49 128 0.0 0.0 0.00 0.00 0.00 83 1016.7
20260510114502 49 128 0.0 0.0 0.00 0.00 0.00 84 1016.6
20260510113001 49 128 0.0 0.0 0.00 0.00 0.00 84 1016.5
20260510111609 49 128 0.0 0.0 0.00 0.00 0.00 84 1016.5
20260510110059 49 128 0.0 2.6 0.00 0.00 0.00 84 1016.5
20260510104620 49 55 0.9 5.2 0.00 0.00 0.00 84 1016.4
20260510103058 49 54 2.6 4.3 0.00 0.00 0.00 84 1016.6
20260510101607 49 10 1.7 5.2 0.00 0.00 0.00 84 1016.5
20260510094605 49 11 3.5 6.1 0.00 0.00 0.00 83 1016.5
20260510093054 49 7 5.2 9.6 0.00 0.00 0.00 83 1016.4
20260510091551 50 5 4.3 9.6 0.00 0.00 0.00 82 1016.2
20260510090052 50 36 5.2 10.4 0.00 0.00 0.00 82 1016.1
20260510084548 50 43 4.3 9.6 0.00 0.00 0.00 82 1016.2
20260510083047 50 6 4.3 10.4 0.00 0.00 0.00 82 1016.0
20260510081545 50 339 4.3 7.8 0.00 0.00 0.00 82 1015.8
20260510080043 50 40 5.2 9.6 0.00 0.00 0.00 81 1015.6
20260510074545 50 43 3.5 10.4 0.00 0.00 0.00 81 1015.4
20260510073044 50 32 7.8 14.8 0.00 0.00 0.00 80 1015.3
20260510071539 50 31 8.7 17.4 0.00 0.00 0.00 78 1015.3
20260510070037 51 57 9.6 19.1 0.00 0.00 0.00 75 1015.3
20260510064529 53 15 11.3 20.9 0.00 0.00 0.00 69 1014.6
20260510063026 53 40 13.0 20.9 0.00 0.00 0.00 66 1014.1
20260510061523 54 34 13.9 26.1 0.00 0.00 0.00 63 1014.0
20260510060020 54 10 12.2 24.3 0.00 0.00 0.00 62 1013.5
20260510054516 55 40 17.4 30.4 0.00 0.00 0.00 60 1012.7
20260510053013 55 32 14.8 26.9 0.00 0.00 0.00 58 1011.4
20260510051511 56 9 19.1 32.2 0.00 0.00 0.00 58 1010.5
20260510050014 56 15 18.2 29.5 0.00 0.00 0.00 56 1010.6
20260510044511 57 1 20.9 31.3 0.00 0.00 0.00 53 1010.4
20260510043010 57 7 19.1 36.5 0.00 0.00 0.00 54 1010.2
20260510041506 58 346 20.9 36.5 0.00 0.00 0.00 53 1009.7
20260510040002 59 340 20.9 33.0 0.00 0.00 0.00 51 1009.3
20260510034600 63 9 14.8 23.5 0.00 0.00 0.00 40 1008.9
20260510033126 66 18 2.6 7.0 0.00 0.00 0.00 34 1007.7
20260510031622 67 80 6.1 10.4 0.00 0.00 0.00 32 1006.7
20260510030101 66 58 6.1 8.7 0.00 0.00 0.00 32 1006.5
20260510024557 67 59 6.1 9.6 0.00 0.00 0.00 31 1006.1
20260510023056 68 34 5.2 7.8 0.00 0.00 0.00 29 1005.6
20260510021556 69 53 7.0 9.6 0.00 0.00 0.00 28 1005.2
20260510020055 70 74 4.3 8.7 0.00 0.00 0.00 25 1004.7
20260510014606 70 75 3.5 7.8 0.00 0.00 0.00 24 1004.2
20260510013054 71 117 3.5 6.1 0.00 0.00 0.00 22 1004.3
20260510011559 72 32 2.6 14.8 0.00 0.00 0.00 23 1004.7
20260510004557 71 336 3.5 12.2 0.00 0.00 0.00 27 1005.4
20260510003059 71 7 7.8 19.1 0.00 0.00 0.00 25 1005.0
20260510001552 72 36 7.8 13.9 0.00 0.00 0.00 24 1004.5
20260510000055 73 9 8.7 19.1 0.00 0.00 0.00 21 1004.4
20260509234605 74 13 16.5 27.8 0.00 0.00 0.00 20 1003.6
20260509233050 74 37 5.2 20.0 0.00 0.00 0.00 19 1003.2
20260509231550 75 65 7.8 14.8 0.00 0.00 0.00 18 1002.7
20260509230052 75 49 9.6 13.9 0.00 0.00 0.00 18 1002.8